Location: Brabourne
(51.1333°N, 1.0000°E)
Time: 22:29:58
(UTC+00:00)

Resurs 1-4 Rocket - Pass Details

Date: 20 June 2021
Orbit: 800 x 813 km, 98.6° (Epoch: 02 August)

Event Time Altitude Azimuth Distance (km) Brightness Sun altitude
Rises 01:12:28 0° 18° (NNE) 3,345 7.4 -13.6°
Reaches altitude 10° 01:14:53 10° 24° (NNE) 2,411 6.0 -13.5°
Maximum altitude 01:20:05 51° 100° (E) 1,015 2.7 -13.2°
Enters shadow 01:24:25 15° 173° (S) 2,084 3.7 -13.0°
